CZ-6A DEB, 54431

Orbit data source: Space-Track

CZ-6A DEB, 54431 is space debris in SSO originally from a launch on Fri, 11 Nov 2022 UTC launched from the Taiyaun Space Center, China (TSC). Debris objects in space refer to the collection of defunct objects orbiting the Earth. Examples of debris include non-operational satellites, rocket bodies, and fragments generated from explosions, collisions, or faulty payload assembly.

Loading next visibility...
Identifier
54431, 2022-151FF
Orbit
SSO
Country
Flag of CNCN / PRC
Related business
Manufacturer
SAST
Mission
Spacecraft
Bus & Motor
Unknown
Mass
Unknown
Launch date (UTC)
2022-11-11 (4 years ago)
Launch vehicle
Unknown
Launch site
Taiyaun Space Center, China (TSC)
Object type
Payload
Rocket body
Debris
Shape & HBR
Unknown shape, 0.1 m
Radar Cross Section
Medium (>0.1 m² and <1 m²)

Expand to show TLE details & history
Last TLE update: 6 hours ago

TLE from 6 hours ago
0 CZ-6A DEB
1 54431U 22151FF  26238.49633292  .00000740  00000-0  47044-3 0  9990
2 54431  98.9813 242.0260 0117433 157.1486 203.4967 14.03463424193492
Epoch: 2026-08-26T11:54Z
TLE epoch observation values (Epoch: 2026-08-26T11:54:43.164Z)
Latitude
-0.00001°
Longitude
88.59766°
Altitude
963.069 km
Speed
7.33 km/s
True Right ascension
16h 08m 06s
True Declination
0° 00' 00"
Sunlit
Object was in daylight at epoch
Visualization orbit readout
Latitude
Unknown
Longitude
Unknown
Altitude
Unknown
Speed
Unknown
Apparent Right ascension
Unknown
Apparent Declination
Unknown
Sunlit
N/A
Visualization observer readout
Local Sidereal Time
09:35:10
Azimuth
Unknown
Elevation
Unknown
Doppler factor
Unknown
Orbital elements
Apogee altitude
964.243 km
Perigee altitude
793.797 km
Semi-major axis
7,257.157 km
Eccentricity
0.01174
Inclination
98.9813°
RAAN
242.026°
Arg. of periapsis
157.1486°
True anomaly
202.96732°
Mean anomaly
203.4967°
Eccentric anomaly
203.2313°
Mean motion
3.5107 °/min
Orbital period
102.54 mins
BSTAR
0.00047044
Loading maneuver chart data...
Computing Atmospheric mass density...
Loading historical data...
Loading historical data...
Loading historical data...
Loading historical data...
Loading historical data...
Loading historical data...
Loading historical data...

Documentation

Showing up to 5 results
|